QPF
0.00 0.00 0.00 0.00 0.00 0.00 0.00 0.00 0.00 0.00 0.00 0.00 0.00 0.00 0.00 0.00 0.00 0.00 0.00 0.00 0.00 0.00 0.00 0.00 0.00 0.00 0.00 0.00 0.00 0.00 0.00 0.00 0.00 0.00 0.00 0.00 0.00 0.00 0.00 0.00 0.00 0.00 0.00 0.00 0.00
0.00 0.00 0.00 0.00 0.00 0.00 0.00 0.00 0.00 0.00 0.00 0.00 0.00 0.00 0.00 0.00 0.00 0.00 0.00 0.00 0.00 0.00 0.00 0.00 0.00 0.00 0.00 0.00 0.00 0.00 0.00 0.00 0.00 0.00 0.00 0.00 0.00 0.00 0.00 0.00 0.00 0.00 0.00 0.00 0.00
0.00 0.00 0.00 0.00 0.00 0.00 0.00 0.00 0.00 0.00 0.00 0.00 0.00 0.00 0.00 0.00 0.00 0.00 0.00 0.00 0.00 0.00 0.00 0.00 0.00 0.00 0.00 0.00 0.00 0.00 0.00 0.00 0.00 0.00 0.00 0.00 0.00 0.00 0.00 0.00 0.00 0.00 0.00 0.00 0.00
0.00 0.00 0.00 0.00 0.00 0.00 0.00 0.00 0.00 0.00 0.00 0.00 0.00 0.00 0.00 0.00 0.00 0.00 0.00 0.00 0.00 0.00 0.00 0.00 0.00 0.00 0.00 0.00 0.00 0.00 0.00 0.00 0.00 0.00 0.00 0.00 0.00 0.00 0.00 0.00 0.00 0.00 0.00 0.00 0.00
0.00 0.00 0.00 0.00 0.00 0.00 0.00 0.00 0.00 0.00 0.00 0.00 0.00 0.00 0.00 0.00 0.00 0.00 0.00 0.00 0.00 0.00 0.00 0.00 0.00 0.00 0.00 0.00 0.00 0.00 0.00 0.00 0.00 0.00 0.00 0.00 0.00 0.00 0.00 0.00 0.00 0.00 0.00 0.00 0.00
0.00 0.00 0.00 0.00 0.00 0.00 0.00 0.00 0.00 0.00 0.00 0.00 0.00 0.00 0.00 0.00 0.00 0.00 0.00 0.00 0.00 0.00 0.00 0.00 0.00 0.00 0.00 0.00 0.00 0.00 0.00 0.00 0.00 0.00 0.00 0.00 0.00 0.00 0.00 0.00 0.00 0.00 0.00 0.00 0.00
0.00 0.00 0.00 0.00 0.00 0.00 0.00 0.00 0.00 0.00 0.00 0.00 0.00 0.00 0.00 0.00 0.00 0.00 0.00 0.00 0.00 0.00 0.00 0.00 0.00 0.00 0.00 0.00 0.00 0.00 0.00 0.00 0.00 0.00 0.00 0.00 0.00 0.00 0.00 0.00 0.00 0.00 0.00 0.00 0.00
0.00 0.00 0.00 0.00 0.00 0.00 0.00 0.00 0.00 0.00 0.00 0.00 0.00 0.00 0.00 0.00 0.00 0.00 0.00 0.00 0.00 0.00 0.00 0.00 0.00 0.00 0.00 0.00 0.00 0.00 0.00 0.00 0.00 0.00 0.00 0.00 0.00 0.00 0.00 0.00 0.00 0.00 0.00 0.00 0.00
0.00 0.00 0.00 0.00 0.00 0.00 0.00 0.00 0.00 0.00 0.00 0.00 0.00 0.00 0.00 0.00 0.00 0.00 0.00 0.00 0.00 0.00 0.00 0.00 0.00 0.00 0.00 0.00 0.00 0.00 0.00 0.00 0.00 0.00 0.00 0.00 0.00 0.00 0.00 0.00 0.00 0.00 0.00 0.00 0.00
0.00 0.00 0.00 0.00 0.00 0.00 0.00 0.00 0.00 0.00 0.00 0.00 0.00 0.00 0.00 0.00 0.00 0.00 0.00 0.00 0.00 0.00 0.00 0.00 0.00 0.00 0.00 0.00 0.00 0.00 0.00 0.00 0.00 0.00 0.00 0.00 0.00 0.00 0.00 0.00 0.00 0.00 0.00 0.00 0.00
0.00 0.00 0.00 0.00 0.00 0.00 0.00 0.00 0.00 0.00 0.00 0.00 0.00 0.00 0.00 0.00 0.00 0.00 0.00 0.00 0.00 0.00 0.00 0.00 0.00 0.00 0.00 0.00 0.00 0.00 0.00 0.00 0.00 0.00 0.00 0.00 0.00 0.00 0.00 0.00 0.00 0.00 0.00 0.00 0.00
0.00 0.00 0.00 0.00 0.00 0.00 0.00 0.00 0.00 0.00 0.00 0.00 0.00 0.00 0.00 0.00 0.00 0.00 0.00 0.00 0.00 0.00 0.00 0.00 0.00 0.00 0.00 0.00 0.00 0.00 0.00 0.00 0.00 0.00 0.00 0.00 0.00 0.00 0.00 0.00 0.00 0.00 0.00 0.00 0.00
0.00 0.00 0.00 0.00 0.00 0.00 0.00 0.00 0.00 0.00 0.00 0.00 0.00 0.00 0.00 0.00 0.00 0.00 0.00 0.00 0.00 0.00 0.00 0.00 0.00 0.00 0.00 0.00 0.00 0.00 0.00 0.00 0.00 0.00 0.00 0.00 0.00 0.00 0.00 0.00 0.00 0.00 0.00 0.00 0.00
0.00 0.00 0.00 0.00 0.00 0.00 0.00 0.00 0.00 0.00 0.00 0.00 0.00 0.00 0.00 0.00 0.00 0.00 0.00 0.00 0.00 0.00 0.00 0.00 0.00 0.00 0.00 0.00 0.00 0.00 0.00 0.00 0.00 0.00 0.00 0.00 0.00 0.00 0.00 0.00 0.00 0.00 0.00 0.00 0.00
0.00 0.00 0.00 0.00 0.00 0.00 0.00 0.00 0.00 0.00 0.00 0.00 0.00 0.00 0.00 0.00 0.00 0.00 0.00 0.00 0.00 0.00 0.00 0.00 0.00 0.00 0.00 0.00 0.00 0.00 0.00 0.00 0.00 0.00 0.00 0.00 0.00 0.00 0.00 0.00 0.00 0.00 0.00 0.00 0.00
0.00 0.00 0.00 0.00 0.00 0.00 0.00 0.00 0.00 0.00 0.00 0.00 0.00 0.00 0.00 0.00 0.00 0.00 0.00 0.00 0.00 0.00 0.00 0.00 0.00 0.00 0.00 0.00 0.00 0.00 0.00 0.00 0.00 0.00 0.00 0.00 0.00 0.00 0.00 0.00 0.00 0.00 0.00 0.00 0.00
0.00 0.00 0.00 0.00 0.00 0.00 0.00 0.00 0.00 0.00 0.00 0.00 0.00 0.00 0.00 0.00 0.00 0.00 0.00 0.00 0.00 0.00 0.00 0.00 0.00 0.00 0.00 0.00 0.00 0.00 0.00 0.00 0.00 0.00 0.00 0.00 0.00 0.00 0.00 0.00 0.00 0.00 0.00 0.00 0.00
0.00 0.00 0.00 0.00 0.00 0.00 0.00 0.00 0.01 0.00 0.00 0.00 0.00 0.00 0.00 0.00 0.00 0.00 0.00 0.00 0.00 0.00 0.00 0.00 0.00 0.00 0.00 0.00 0.00 0.00 0.00 0.00 0.00 0.00 0.00 0.00 0.00 0.00 0.00 0.00 0.00 0.00 0.00 0.00 0.00
0.00 0.00 0.00 0.00 0.00 0.00 0.00 0.01 0.00 0.00 0.00 0.00 0.00 0.00 0.00 0.00 0.00 0.00 0.00 0.00 0.00 0.00 0.00 0.00 0.00 0.00 0.00 0.00 0.00 0.00 0.00 0.00 0.00 0.00 0.00 0.00 0.00 0.00 0.00 0.00 0.00 0.00 0.00 0.00 0.00
0.00 0.00 0.00 0.00 0.00 0.00 0.00 0.00 0.00 0.00 0.00 0.00 0.00 0.00 0.00 0.00 0.00 0.00 0.00 0.00 0.00 0.00 0.00 0.00 0.00 0.00 0.00 0.00 0.00 0.00 0.00 0.00 0.00 0.00 0.00 0.00 0.00 0.00 0.00 0.00 0.00 0.00 0.00 0.00 0.00
0.00 0.00 0.00 0.00 0.01 0.01 0.00 0.00 0.00 0.00 0.00 0.00 0.00 0.00 0.00 0.00 0.01 0.01 0.01 0.00 0.00 0.00 0.00 0.00 0.01 0.00 0.00 0.00 0.00 0.00 0.00 0.00 0.00 0.00 0.00 0.00 0.00 0.00 0.00 0.00 0.00 0.00 0.00 0.00 0.00
0.00 0.00 0.00 0.01 0.01 0.00 0.00 0.00 0.00 0.00 0.00 0.00 0.00 0.00 0.00 0.00 0.00 0.01 0.00 0.00 0.00 0.00 0.01 0.01 0.04 0.01 0.00 0.00 0.00 0.00 0.00 0.00 0.00 0.00 0.00 0.00 0.00 0.00 0.00 0.00 0.00 0.00 0.00 0.00 0.00
0.00 0.00 0.00 0.01 0.00 0.00 0.00 0.00 0.00 0.00 0.00 0.00 0.00 0.00 0.00 0.00 0.01 0.00 0.00 0.00 0.00 0.00 0.01 0.02 0.04 0.02 0.01 0.00 0.00 0.00 0.00 0.00 0.00 0.00 0.00 0.00 0.00 0.00 0.00 0.00 0.00 0.00 0.00 0.00 0.00
0.00 0.00 0.00 0.01 0.00 0.00 0.00 0.00 0.00 0.00 0.00 0.00 0.00 0.00 0.00 0.00 0.01 0.01 0.00 0.00 0.00 0.00 0.00 0.02 0.02 0.02 0.01 0.00 0.00 0.00 0.00 0.00 0.00 0.00 0.00 0.00 0.00 0.00 0.00 0.00 0.00 0.00 0.00 0.00 0.00
0.00 0.00 0.00 0.00 0.00 0.00 0.00 0.00 0.00 0.00 0.00 0.00 0.00 0.00 0.00 0.00 0.00 0.00 0.00 0.00 0.00 0.00 0.00 0.00 0.01 0.00 0.00 0.00 0.00 0.00 0.00 0.00 0.00 0.00 0.00 0.00 0.00 0.00 0.00 0.00 0.00 0.00 0.00 0.00 0.00
0.00 0.00 0.00 0.00 0.00 0.00 0.00 0.00 0.00 0.00 0.00 0.00 0.00 0.00 0.00 0.00 0.00 0.00 0.00 0.00 0.00 0.00 0.00 0.00 0.00 0.00 0.00 0.00 0.00 0.00 0.00 0.00 0.00 0.00 0.00 0.00 0.00 0.00 0.00 0.00 0.00 0.00 0.00 0.00 0.00
0.00 0.00 0.00 0.00 0.00 0.00 0.00 0.00 0.00 0.00 0.00 0.00 0.00 0.00 0.00 0.00 0.00 0.00 0.00 0.00 0.00 0.00 0.00 0.00 0.00 0.00 0.00 0.00 0.00 0.00 0.00 0.00 0.00 0.00 0.00 0.00 0.00 0.00 0.00 0.00 0.00 0.00 0.00 0.00 0.00
MSLP
1021.66 1021.48 1021.36 1021.18 1021.05 1020.90 1020.74 1020.55 1020.42 1020.26 1020.07 1019.90 1019.65 1019.30 1018.95 1018.73 1018.36 1018.01 1016.98 1015.79 1015.91 1016.48 1016.60 1016.94 1016.97 1016.98 1016.91 1016.87 1017.02 1016.85 1015.72 1014.64 1014.22 1014.19 1013.31 1013.66 1013.60 1013.75 1013.51 1013.12 1013.15 1012.85 1012.22 1012.14 1013.48
1021.68 1021.53 1021.38 1021.27 1021.04 1020.93 1020.76 1020.61 1020.39 1020.23 1020.03 1019.81 1019.58 1019.34 1019.08 1018.80 1018.14 1016.87 1015.55 1015.65 1015.79 1016.15 1016.27 1016.30 1016.58 1016.88 1016.68 1016.86 1016.90 1016.38 1015.55 1014.34 1013.99 1013.75 1013.54 1013.54 1013.60 1013.34 1013.29 1012.49 1012.11 1011.95 1011.78 1012.45 1013.35
1021.58 1021.47 1021.33 1021.21 1021.06 1020.82 1020.68 1020.48 1020.24 1020.02 1019.82 1019.66 1019.42 1019.12 1018.97 1018.75 1017.75 1015.56 1015.36 1015.64 1015.97 1016.10 1015.98 1016.18 1016.27 1016.46 1016.49 1016.70 1016.35 1016.11 1014.89 1014.22 1013.97 1013.94 1014.07 1013.81 1013.58 1013.53 1012.82 1011.36 1011.02 1010.92 1010.90 1011.25 1012.32
1021.46 1021.35 1021.22 1021.06 1020.90 1020.69 1020.44 1020.29 1020.08 1019.84 1019.62 1019.41 1019.22 1019.00 1018.79 1018.41 1017.14 1015.57 1015.44 1015.58 1016.00 1016.14 1016.28 1016.45 1016.47 1016.41 1016.29 1016.18 1016.11 1016.03 1015.00 1014.58 1014.23 1014.34 1014.55 1014.14 1013.64 1013.14 1012.55 1010.51 1010.50 1010.62 1010.79 1010.84 1011.32
1021.29 1021.22 1021.07 1020.87 1020.72 1020.53 1020.28 1020.02 1019.80 1019.59 1019.40 1019.22 1019.05 1018.85 1018.42 1017.87 1016.16 1015.70 1015.74 1015.95 1016.20 1016.26 1015.94 1016.04 1016.15 1016.15 1015.85 1015.79 1016.06 1015.70 1014.67 1014.41 1014.37 1014.54 1014.40 1014.25 1013.05 1012.83 1011.24 1010.66 1010.30 1010.35 1010.73 1010.59 1010.57
1021.11 1021.05 1020.94 1020.78 1020.47 1020.21 1019.96 1019.70 1019.40 1019.14 1018.96 1018.85 1018.84 1018.87 1018.28 1017.23 1015.57 1015.84 1016.12 1016.44 1016.23 1016.27 1016.19 1016.16 1015.81 1016.09 1015.98 1015.93 1015.97 1015.28 1014.99 1014.43 1014.19 1014.14 1014.03 1013.84 1011.97 1012.48 1010.11 1010.09 1009.79 1009.82 1009.86 1009.83 1009.85
1021.12 1020.97 1020.85 1020.71 1020.44 1020.05 1019.67 1019.36 1019.10 1018.79 1018.51 1018.39 1018.48 1018.57 1017.92 1016.11 1015.67 1015.94 1016.11 1016.34 1016.45 1016.32 1016.33 1016.49 1016.34 1016.17 1016.17 1015.92 1015.94 1015.70 1015.15 1014.06 1013.13 1013.27 1013.51 1013.52 1012.12 1010.69 1009.46 1009.78 1009.44 1008.87 1008.67 1008.86 1009.01
1021.00 1020.90 1020.70 1020.47 1020.21 1019.78 1019.33 1018.98 1018.68 1018.41 1018.18 1018.12 1018.40 1018.27 1017.01 1016.17 1016.05 1016.18 1016.19 1016.39 1016.50 1016.53 1016.54 1016.62 1016.66 1016.48 1016.37 1016.28 1016.04 1015.65 1015.16 1013.57 1012.23 1013.22 1013.22 1013.27 1010.77 1009.29 1009.36 1009.59 1008.90 1008.40 1007.89 1007.66 1007.29
1020.86 1020.77 1020.61 1020.37 1020.00 1019.43 1018.99 1018.60 1018.47 1018.35 1018.22 1018.40 1018.37 1017.90 1016.55 1016.48 1016.34 1016.34 1016.31 1016.28 1016.55 1016.67 1016.74 1016.76 1016.61 1016.58 1016.54 1015.89 1015.46 1014.80 1013.47 1012.80 1012.50 1012.51 1012.82 1012.87 1010.78 1009.50 1009.71 1009.58 1008.51 1007.99 1007.54 1006.91 1006.82
1020.73 1020.66 1020.50 1020.19 1019.81 1019.32 1018.80 1018.49 1018.44 1018.45 1018.47 1018.37 1018.01 1018.05 1016.19 1016.25 1016.33 1016.49 1016.56 1016.53 1016.56 1016.68 1016.79 1016.83 1016.71 1016.26 1016.05 1015.66 1013.83 1013.03 1013.25 1012.97 1012.62 1012.20 1012.58 1012.33 1011.16 1010.43 1009.52 1009.29 1007.98 1007.08 1006.25 1006.33 1006.35
1020.44 1020.41 1020.32 1020.08 1019.65 1019.17 1018.51 1018.53 1018.69 1018.63 1018.10 1017.75 1017.28 1016.81 1016.18 1016.42 1016.59 1016.76 1016.76 1016.61 1016.64 1016.70 1016.43 1016.73 1016.31 1015.20 1014.33 1014.27 1013.45 1013.53 1013.34 1012.68 1012.42 1012.50 1012.37 1010.92 1010.25 1010.00 1009.62 1008.33 1007.10 1006.30 1005.95 1006.08 1005.99
1020.15 1020.18 1020.09 1019.92 1019.66 1019.26 1018.79 1019.07 1020.07 1020.34 1018.74 1017.21 1016.90 1016.83 1016.64 1016.60 1016.57 1016.86 1016.98 1016.92 1016.73 1016.52 1016.97 1017.08 1015.88 1015.12 1015.06 1014.93 1014.79 1014.21 1013.36 1012.62 1012.14 1012.40 1012.47 1011.10 1009.80 1009.24 1008.58 1007.45 1006.26 1006.23 1006.22 1006.24 1006.31
1019.93 1020.06 1019.96 1019.83 1019.65 1019.39 1019.66 1020.03 1020.19 1020.15 1019.46 1017.40 1017.18 1016.91 1016.86 1016.83 1016.69 1016.91 1017.11 1016.67 1016.74 1016.85 1016.69 1016.00 1014.98 1015.24 1015.51 1015.43 1015.11 1014.02 1013.84 1012.89 1012.39 1012.67 1012.32 1011.50 1009.09 1008.53 1007.29 1006.82 1006.39 1006.37 1006.66 1007.14 1007.43
1019.83 1019.91 1019.82 1019.70 1019.92 1019.87 1019.96 1020.35 1020.61 1020.56 1019.12 1017.48 1017.15 1016.93 1016.87 1016.80 1017.23 1017.49 1017.40 1017.13 1016.85 1016.75 1016.79 1016.35 1015.91 1015.83 1015.88 1015.71 1015.33 1014.03 1013.86 1013.80 1013.46 1013.18 1012.16 1012.17 1008.90 1008.39 1007.13 1006.20 1006.39 1006.73 1007.12 1007.73 1008.45
1019.90 1019.88 1019.90 1019.67 1019.67 1019.86 1020.35 1020.11 1020.63 1020.74 1018.80 1017.24 1016.68 1016.57 1016.54 1016.87 1017.47 1017.73 1017.71 1017.00 1016.80 1016.64 1017.10 1015.63 1015.91 1016.09 1015.67 1015.07 1015.22 1014.67 1014.99 1014.68 1014.36 1013.65 1012.91 1011.81 1010.85 1007.46 1007.42 1006.57 1006.82 1007.60 1008.58 1009.34 1010.47
1019.72 1019.65 1019.84 1019.71 1019.78 1020.34 1020.36 1020.22 1020.07 1019.90 1017.86 1016.89 1016.34 1016.23 1016.08 1016.37 1017.02 1017.52 1017.57 1017.28 1016.87 1016.55 1016.44 1016.05 1016.42 1016.18 1015.36 1015.33 1015.31 1015.18 1015.15 1015.22 1014.94 1014.30 1012.35 1010.63 1010.26 1007.86 1007.30 1007.22 1007.87 1008.88 1010.60 1011.51 1012.14
1019.93 1019.91 1019.95 1019.71 1019.71 1019.97 1020.01 1020.28 1020.08 1018.39 1016.76 1016.56 1016.30 1016.31 1016.11 1015.98 1016.35 1016.34 1016.41 1016.35 1016.55 1016.10 1015.63 1015.08 1015.49 1015.67 1015.40 1015.32 1015.66 1015.55 1015.57 1015.02 1014.36 1013.92 1011.72 1011.51 1010.69 1008.60 1007.64 1008.26 1009.50 1010.86 1012.23 1012.10 1012.64
1020.37 1020.12 1019.74 1019.72 1019.73 1019.96 1019.93 1019.92 1019.01 1017.36 1016.56 1015.79 1016.03 1016.36 1016.14 1015.80 1015.45 1015.97 1015.57 1015.00 1015.56 1016.02 1015.61 1015.20 1014.33 1015.25 1015.19 1014.83 1015.02 1015.85 1016.09 1016.59 1015.26 1014.09 1012.44 1011.87 1009.60 1008.30 1008.22 1009.25 1010.55 1011.77 1013.06 1013.55 1013.89
1020.15 1020.26 1019.79 1019.50 1019.89 1020.05 1020.33 1019.20 1016.94 1016.72 1016.14 1016.06 1015.73 1015.74 1015.51 1015.74 1015.97 1016.04 1015.87 1015.10 1015.17 1015.19 1015.57 1015.49 1015.15 1015.27 1015.33 1014.96 1015.48 1015.94 1015.86 1015.55 1015.78 1015.44 1014.17 1011.42 1009.34 1009.01 1009.40 1009.55 1011.90 1013.16 1014.13 1014.72 1014.98
1020.33 1020.10 1019.94 1019.92 1019.74 1019.86 1020.46 1018.78 1017.17 1016.37 1016.38 1016.17 1015.90 1015.45 1015.01 1015.65 1015.94 1016.08 1015.85 1015.82 1015.57 1015.79 1016.14 1016.89 1016.55 1015.35 1015.18 1015.54 1015.17 1014.90 1015.17 1015.90 1016.39 1015.46 1013.48 1011.13 1009.80 1008.80 1009.91 1010.78 1012.33 1014.21 1015.26 1015.59 1015.91
1020.34 1020.23 1019.68 1019.79 1019.92 1020.20 1019.21 1018.23 1017.40 1016.94 1016.88 1016.71 1015.95 1015.82 1015.55 1016.14 1016.18 1016.17 1015.83 1016.02 1015.79 1016.05 1016.31 1017.17 1017.05 1014.94 1015.78 1014.79 1014.50 1015.42 1015.32 1016.13 1016.30 1015.42 1013.40 1011.96 1009.62 1009.18 1010.21 1012.52 1013.41 1014.69 1015.77 1016.09 1016.17
1020.34 1020.24 1019.58 1019.55 1020.03 1019.43 1018.78 1018.09 1017.37 1017.16 1017.39 1017.08 1016.83 1016.53 1016.29 1016.40 1016.45 1016.72 1016.21 1015.91 1016.13 1016.46 1016.70 1016.53 1016.52 1016.36 1015.00 1014.13 1014.30 1014.27 1014.53 1015.01 1015.10 1013.83 1012.75 1011.70 1009.81 1010.94 1012.34 1014.03 1015.27 1016.17 1016.90 1017.42 1017.42
1020.36 1020.49 1019.97 1019.70 1019.20 1018.77 1018.27 1018.08 1017.80 1017.69 1017.67 1017.52 1017.15 1017.07 1016.95 1017.21 1017.34 1016.66 1016.52 1016.72 1016.98 1017.20 1017.05 1017.17 1016.94 1016.54 1015.17 1014.64 1015.28 1015.14 1014.77 1015.05 1015.18 1015.01 1013.41 1012.72 1011.80 1012.62 1013.79 1015.08 1016.38 1017.11 1017.69 1017.69 1017.68
1020.69 1020.85 1020.64 1019.87 1019.38 1019.13 1018.72 1018.10 1017.93 1018.00 1017.90 1017.92 1017.81 1017.86 1017.95 1018.02 1018.15 1017.39 1017.50 1017.82 1018.21 1018.39 1018.48 1018.41 1017.91 1017.55 1016.49 1015.71 1015.64 1016.36 1016.33 1016.03 1016.02 1015.06 1014.05 1013.33 1012.71 1012.73 1013.31 1014.46 1016.30 1017.26 1017.62 1017.77 1017.83
1020.67 1020.74 1020.71 1020.06 1019.80 1019.45 1019.39 1018.87 1018.74 1018.76 1018.73 1018.52 1018.46 1018.67 1019.01 1018.87 1018.84 1018.69 1018.74 1018.91 1018.96 1019.32 1019.27 1019.30 1018.64 1017.99 1017.26 1016.97 1016.90 1016.63 1016.64 1016.20 1015.80 1015.73 1015.09 1013.60 1013.57 1013.49 1014.27 1015.67 1016.21 1017.11 1017.39 1017.75 1017.65
1021.21 1020.94 1021.20 1020.63 1020.41 1020.25 1019.94 1018.98 1019.10 1019.58 1019.97 1019.75 1019.60 1019.68 1019.96 1019.89 1019.99 1020.17 1020.45 1020.26 1020.10 1019.92 1020.04 1020.28 1019.33 1018.85 1018.14 1017.57 1017.39 1017.04 1016.49 1015.84 1015.78 1015.54 1015.13 1014.58 1013.82 1014.02 1015.51 1016.05 1016.60 1016.84 1017.06 1016.98 1016.85
1021.69 1021.53 1021.08 1020.79 1021.11 1021.11 1020.19 1019.89 1019.94 1020.39 1021.10 1021.02 1021.14 1020.95 1020.91 1021.09 1021.11 1021.48 1021.68 1021.57 1021.46 1021.22 1021.10 1021.21 1020.48 1019.81 1018.44 1018.25 1017.99 1017.09 1015.44 1015.73 1015.04 1014.50 1014.54 1014.45 1014.73 1015.75 1016.48 1016.53 1016.55 1016.67 1016.63 1016.36 1016.29
Thickness
5701 5704 5705 5707 5709 5710 5712 5714 5715 5716 5718 5720 5722 5725 5728 5730 5732 5734 5736 5749 5747 5743 5740 5735 5732 5729 5727 5720 5718 5716 5708 5706 5709 5704 5723 5727 5721 5723 5729 5726 5723 5728 5736 5745 5732
5697 5699 5701 5702 5705 5707 5709 5710 5712 5714 5715 5717 5719 5721 5723 5726 5730 5734 5748 5746 5745 5741 5736 5731 5722 5721 5717 5712 5711 5710 5703 5712 5722 5722 5719 5724 5720 5721 5719 5727 5724 5728 5738 5737 5728
5693 5694 5697 5699 5700 5703 5705 5707 5709 5711 5712 5714 5716 5719 5720 5722 5727 5740 5745 5741 5738 5735 5734 5729 5724 5718 5709 5708 5710 5706 5709 5720 5719 5718 5715 5715 5713 5715 5716 5724 5728 5731 5737 5741 5730
5688 5690 5692 5694 5696 5698 5701 5703 5705 5707 5709 5711 5712 5715 5717 5719 5709 5737 5737 5735 5731 5727 5723 5717 5712 5705 5703 5701 5707 5696 5711 5712 5715 5710 5704 5703 5711 5708 5712 5734 5737 5736 5737 5736 5730
5683 5685 5687 5690 5691 5693 5696 5698 5700 5701 5703 5705 5706 5709 5714 5713 5718 5728 5728 5726 5722 5719 5716 5711 5704 5699 5697 5701 5696 5694 5710 5711 5710 5704 5702 5699 5707 5700 5721 5729 5734 5733 5728 5726 5729
5677 5678 5680 5682 5685 5688 5690 5693 5696 5697 5699 5699 5699 5700 5707 5702 5725 5720 5718 5714 5715 5712 5708 5705 5704 5699 5696 5694 5689 5699 5697 5703 5705 5703 5698 5690 5713 5699 5731 5726 5727 5727 5725 5728 5728
5667 5670 5672 5674 5677 5681 5685 5688 5690 5693 5695 5696 5695 5695 5700 5714 5719 5714 5711 5708 5707 5705 5698 5697 5697 5692 5690 5686 5687 5684 5681 5698 5711 5703 5690 5686 5695 5706 5728 5721 5720 5727 5732 5730 5729
5659 5661 5664 5668 5671 5675 5680 5683 5687 5689 5690 5691 5688 5688 5698 5710 5708 5706 5704 5700 5699 5697 5694 5692 5687 5682 5681 5681 5674 5670 5669 5678 5714 5691 5688 5680 5694 5729 5725 5713 5718 5728 5733 5734 5738
5651 5653 5655 5659 5663 5669 5674 5677 5679 5680 5680 5679 5680 5681 5691 5698 5698 5696 5696 5693 5689 5686 5684 5683 5678 5669 5670 5670 5661 5668 5667 5676 5684 5697 5685 5669 5681 5718 5713 5705 5717 5723 5726 5730 5730
5643 5645 5647 5651 5655 5660 5665 5669 5669 5669 5669 5668 5670 5669 5685 5685 5686 5685 5685 5683 5679 5675 5671 5668 5661 5659 5662 5661 5656 5671 5658 5660 5660 5695 5674 5663 5663 5684 5706 5699 5710 5720 5729 5727 5724
5635 5637 5639 5642 5646 5651 5657 5659 5661 5661 5663 5667 5668 5668 5672 5670 5671 5671 5673 5672 5668 5664 5659 5654 5651 5655 5671 5665 5673 5662 5653 5653 5668 5673 5654 5672 5671 5675 5687 5700 5710 5718 5721 5720 5720
5626 5627 5629 5631 5635 5640 5644 5642 5636 5632 5646 5658 5657 5653 5655 5657 5656 5656 5660 5657 5654 5650 5641 5638 5638 5656 5652 5648 5640 5643 5643 5647 5658 5660 5645 5656 5662 5673 5678 5696 5710 5708 5708 5709 5710
5617 5617 5618 5620 5623 5626 5625 5625 5622 5621 5625 5646 5643 5641 5642 5645 5644 5646 5643 5644 5640 5632 5635 5641 5651 5641 5632 5632 5630 5642 5629 5641 5641 5640 5640 5636 5659 5659 5687 5689 5695 5696 5697 5693 5691
5606 5607 5608 5610 5610 5610 5613 5608 5606 5607 5622 5630 5628 5632 5633 5636 5630 5625 5625 5627 5625 5622 5619 5620 5629 5623 5616 5614 5623 5623 5640 5627 5623 5617 5623 5624 5634 5652 5670 5680 5677 5679 5679 5678 5677
5594 5596 5595 5597 5599 5600 5596 5598 5594 5594 5598 5614 5613 5621 5624 5621 5614 5611 5612 5616 5612 5613 5605 5622 5614 5606 5608 5617 5611 5613 5608 5608 5606 5608 5603 5616 5609 5653 5646 5661 5666 5660 5654 5649 5644
5584 5585 5585 5587 5587 5583 5583 5585 5590 5591 5584 5605 5606 5609 5611 5610 5604 5599 5599 5599 5601 5597 5595 5601 5596 5598 5607 5601 5600 5600 5600 5594 5585 5592 5601 5626 5614 5633 5642 5648 5648 5641 5622 5615 5613
5571 5572 5571 5574 5577 5574 5574 5574 5573 5571 5598 5597 5600 5594 5596 5594 5590 5593 5595 5597 5592 5588 5598 5605 5597 5590 5591 5591 5584 5585 5583 5583 5592 5586 5605 5597 5595 5616 5633 5633 5628 5614 5599 5602 5601
5555 5558 5560 5559 5561 5560 5564 5564 5554 5574 5586 5596 5587 5580 5581 5583 5590 5584 5592 5596 5585 5578 5575 5576 5589 5584 5584 5589 5583 5568 5569 5548 5552 5569 5589 5589 5595 5616 5621 5613 5596 5591 5583 5579 5575
5545 5543 5549 5547 5545 5545 5545 5548 5574 5575 5581 5578 5577 5573 5579 5570 5566 5564 5567 5583 5583 5578 5567 5562 5569 5570 5569 5571 5570 5558 5555 5566 5544 5541 5533 5579 5607 5609 5599 5600 5573 5566 5562 5556 5554
5528 5532 5534 5530 5531 5533 5527 5543 5559 5565 5558 5559 5555 5565 5568 5563 5553 5549 5558 5554 5559 5556 5550 5533 5531 5558 5562 5555 5560 5561 5558 5541 5531 5527 5533 5563 5574 5595 5599 5580 5562 5549 5537 5533 5528
5513 5517 5523 5516 5515 5512 5520 5535 5543 5545 5540 5537 5547 5543 5549 5540 5539 5537 5542 5540 5544 5540 5536 5523 5518 5551 5536 5553 5559 5535 5534 5525 5512 5517 5523 5527 5562 5605 5581 5549 5541 5526 5514 5511 5510
5499 5504 5508 5505 5501 5507 5515 5525 5529 5527 5525 5523 5527 5526 5527 5526 5523 5519 5526 5530 5532 5528 5523 5526 5507 5504 5532 5551 5540 5540 5535 5535 5521 5530 5539 5531 5543 5554 5535 5513 5502 5489 5482 5477 5475
5487 5484 5487 5490 5496 5502 5511 5513 5513 5512 5510 5506 5511 5513 5512 5509 5500 5515 5516 5515 5512 5509 5509 5505 5496 5495 5510 5527 5509 5507 5515 5508 5505 5483 5503 5505 5512 5513 5496 5483 5467 5460 5456 5455 5452
5468 5472 5471 5475 5485 5490 5491 5500 5498 5496 5497 5495 5497 5494 5490 5489 5490 5496 5494 5489 5481 5481 5473 5474 5472 5473 5483 5498 5501 5479 5481 5481 5476 5479 5492 5486 5501 5512 5512 5498 5457 5445 5438 5434 5429
5449 5455 5454 5464 5468 5468 5469 5481 5476 5473 5473 5473 5476 5474 5463 5465 5466 5468 5472 5464 5464 5453 5457 5446 5448 5461 5463 5461 5456 5456 5460 5467 5461 5455 5438 5472 5464 5482 5474 5437 5434 5424 5423 5417 5412
5432 5438 5432 5438 5439 5443 5445 5467 5459 5455 5450 5452 5448 5452 5437 5438 5441 5437 5429 5435 5441 5440 5432 5423 5425 5431 5419 5443 5435 5425 5442 5448 5442 5438 5433 5440 5442 5459 5415 5412 5410 5408 5404 5404 5401
5407 5410 5418 5418 5417 5421 5429 5436 5428 5428 5408 5414 5410 5412 5410 5411 5406 5402 5400 5402 5402 5400 5398 5392 5399 5403 5403 5425 5400 5381 5424 5425 5434 5447 5442 5429 5425 5383 5377 5385 5390 5384 5382 5384 5381